TimeAKDT,TemperatureF,Dew PointF,Humidity,Sea Level PressureIn,VisibilityMPH,Wind Direction,Wind SpeedMPH,Gust SpeedMPH,PrecipitationIn,Events,Conditions,WindDirDegrees,DateUTC
12:01 AM,46.9,45.0,93,29.71,10.0,East,8.1,-,N/A,,Mostly Cloudy,90,2013-07-08 08:01:00
12:26 AM,48.0,45.0,89,29.71,10.0,East,8.1,-,N/A,,Scattered Clouds,80,2013-07-08 08:26:00
12:53 AM,48.0,45.0,89,29.71,10.0,ESE,4.6,-,N/A,,Scattered Clouds,110,2013-07-08 08:53:00
1:27 AM,48.0,45.0,89,29.71,10.0,Variable,5.8,-,N/A,,Overcast,0,2013-07-08 09:27:00
1:44 AM,48.0,45.0,89,29.71,10.0,East,5.8,-,N/A,,Scattered Clouds,90,2013-07-08 09:44:00
1:53 AM,48.0,45.0,89,29.71,10.0,East,5.8,-,N/A,,Partly Cloudy,90,2013-07-08 09:53:00
2:53 AM,46.9,44.1,90,29.72,10.0,East,6.9,-,N/A,,Clear,100,2013-07-08 10:53:00
3:53 AM,46.0,44.1,93,29.72,10.0,Variable,4.6,-,N/A,,Clear,0,2013-07-08 11:53:00
4:53 AM,42.1,41.0,96,29.73,10.0,Calm,Calm,-,N/A,,Clear,0,2013-07-08 12:53:00
5:53 AM,39.9,39.9,100,29.74,10.0,Calm,Calm,-,N/A,,Clear,0,2013-07-08 13:53:00
6:53 AM,43.0,43.0,100,29.75,10.0,Calm,Calm,-,N/A,,Scattered Clouds,0,2013-07-08 14:53:00
7:53 AM,46.0,44.1,93,29.75,10.0,Calm,Calm,-,N/A,,Partly Cloudy,0,2013-07-08 15:53:00
8:53 AM,48.0,46.0,93,29.76,10.0,WNW,3.5,-,N/A,,Scattered Clouds,290,2013-07-08 16:53:00
9:53 AM,48.9,44.1,83,29.78,10.0,Calm,Calm,-,N/A,,Overcast,0,2013-07-08 17:53:00
10:53 AM,50.0,43.0,77,29.78,10.0,East,4.6,-,N/A,,Scattered Clouds,100,2013-07-08 18:53:00
11:53 AM,53.1,45.0,74,29.78,10.0,East,4.6,-,N/A,,Mostly Cloudy,100,2013-07-08 19:53:00
12:53 PM,54.0,46.0,75,29.78,10.0,ESE,11.5,-,N/A,,Partly Cloudy,110,2013-07-08 20:53:00
1:53 PM,57.9,46.9,67,29.78,10.0,ESE,8.1,-,N/A,,Partly Cloudy,120,2013-07-08 21:53:00
2:53 PM,59.0,46.0,62,29.79,10.0,SE,8.1,17.3,N/A,,Partly Cloudy,130,2013-07-08 22:53:00
3:53 PM,60.1,46.9,62,29.80,10.0,Variable,5.8,-,N/A,,Clear,0,2013-07-08 23:53:00
4:53 PM,57.9,46.0,65,29.80,10.0,SE,8.1,18.4,N/A,,Clear,130,2013-07-09 00:53:00
5:53 PM,57.0,46.0,67,29.81,10.0,Variable,6.9,-,N/A,,Partly Cloudy,0,2013-07-09 01:53:00
6:53 PM,57.0,46.9,69,29.81,10.0,Variable,5.8,-,N/A,,Mostly Cloudy,0,2013-07-09 02:53:00
7:53 PM,55.9,46.9,72,29.82,10.0,Variable,4.6,-,N/A,,Overcast,0,2013-07-09 03:53:00
8:53 PM,52.0,45.0,77,29.84,10.0,Variable,4.6,-,N/A,,Overcast,0,2013-07-09 04:53:00
9:53 PM,51.1,45.0,80,29.85,10.0,ENE,8.1,-,N/A,,Overcast,70,2013-07-09 05:53:00
10:53 PM,51.1,44.1,77,29.86,10.0,East,8.1,-,N/A,,Overcast,90,2013-07-09 06:53:00
11:53 PM,51.1,46.0,83,29.88,10.0,East,6.9,-,0.00,,Overcast,90,2013-07-09 07:53:00